Weather History for Mineola, TX

Change the Weather History Date:

Friday, November 8, 2013

  Actual Average (KTYR) Record (KTYR)
Temperature  
Mean Temperature 52 °F 58 °F  
Max Temperature 64 °F 68 °F 86 °F (1915)
Min Temperature 39 °F 49 °F 22 °F (1959)
Degree Days  
Heating Degree Days 14 7  
Month to date heating degree days 50  
Since 1 July heating degree days 127  
Cooling Degree Days 0 1  
Month to date cooling degree days 10  
Year to date cooling degree days 2403  
Growing Degree Days 2 (Base 50)    
Moisture  
Dew Point 43 °F    
Average Humidity 75    
Maximum Humidity 100    
Minimum Humidity 34    
Precipitation  
Precipitation 0.00 in 0.14 in 2.77 in (1918)
Month to date precipitation 1.17  
Year to date precipitation 38.62  
Snow  
Snow 0.00 in - - ()
Month to date snowfall  
Since 1 July snowfall  
Since 1 September snowfall  
Snow Depth -    
Sea Level Pressure  
Sea Level Pressure 30.30 in    
Wind  
Wind Speed 1 mph (SSE)    
Max Wind Speed 7 mph    
Max Gust Speed -    
Visibility 8 miles    
Events      
T = Trace of Precipitation, MM = Missing Value Source: NWS Daily Summary

Daily Weather History Graph

Daily Weather History Graph

Search for Another Location

Airport:

Trip Planner

Search our weather history database for the weather conditions in past years. The results will help you decide how hot, cold, wet, or windy it might be!

Date:

Astronomy

Nov. 08, 2013 Rise Set
Actual Time 6:45 AM CST 5:25 PM CST
Civil Twilight 6:20 AM CST 5:50 PM CST
Nautical Twilight 5:50 AM CST 6:20 PM CST
Astronomical Twilight 5:21 AM CST 6:49 PM CST
Moon 11:42 AM CST (11/8) 10:46 PM CST (11/8)
Length of Visible Light 11h 30m
Length of Day
10h 39m
Waxing Crescent, 33% of the Moon is Illuminated
Nov 8
Waxing Crescent
Nov 9
First Quarter
Nov 17
Full
Nov 25
Last Quarter
Dec 2
New

Hourly Weather History & Observations

Time (CST) Temp. Dew Point Humidity Pressure Visibility Wind Dir Wind Speed Gust Speed Precip Events Conditions
12:15 AM 44.6 °F 44.6 °F 100% 30.39 in 10.0 mi Calm Calm - N/A   Clear
12:35 AM 44.6 °F 42.8 °F 93% 30.39 in 10.0 mi Calm Calm - N/A   Clear
12:55 AM 44.6 °F 44.6 °F 100% 30.39 in 10.0 mi Calm Calm - N/A   Clear
1:15 AM 44.6 °F 44.6 °F 100% 30.39 in 10.0 mi Calm Calm - N/A   Clear
1:35 AM 44.6 °F 44.6 °F 100% 30.39 in 10.0 mi Calm Calm - N/A   Clear
1:55 AM 44.6 °F 44.6 °F 100% 30.39 in 10.0 mi Calm Calm - N/A   Clear
2:15 AM 44.6 °F 44.6 °F 100% 30.39 in 3.0 mi Calm Calm - N/A   Clear
2:35 AM 44.6 °F 42.8 °F 93% 30.38 in 10.0 mi Calm Calm - N/A   Clear
2:55 AM 42.8 °F 42.8 °F 100% 30.38 in 10.0 mi Calm Calm - N/A   Clear
3:15 AM 42.8 °F 42.8 °F 100% 30.38 in 9.0 mi Calm Calm - N/A   Clear
3:35 AM 42.8 °F 41.0 °F 93% 30.38 in 7.0 mi Calm Calm - N/A   Clear
3:55 AM 41.0 °F 41.0 °F 100% 30.37 in 8.0 mi Calm Calm - N/A   Clear
4:15 AM 41.0 °F 41.0 °F 100% 30.37 in 10.0 mi Calm Calm - N/A   Clear
4:35 AM 41.0 °F 39.2 °F 93% 30.36 in 1.8 mi Calm Calm - N/A   Clear
4:55 AM 39.2 °F 39.2 °F 100% 30.36 in 5.0 mi Calm Calm - N/A   Clear
5:15 AM 39.2 °F 39.2 °F 100% 30.36 in 5.0 mi Calm Calm - N/A   Clear
5:35 AM 39.2 °F 39.2 °F 100% 30.36 in 10.0 mi Calm Calm - N/A   Clear
5:55 AM 39.2 °F 39.2 °F 100% 30.37 in 10.0 mi Calm Calm - N/A   Clear
6:15 AM 39.2 °F 39.2 °F 100% 30.37 in 10.0 mi Calm Calm - N/A   Clear
6:35 AM 39.2 °F 39.2 °F 100% 30.37 in 8.0 mi Calm Calm - N/A   Clear
6:55 AM 39.2 °F 39.2 °F 100% 30.37 in 4.0 mi Calm Calm - N/A   Clear
7:15 AM 39.2 °F 39.2 °F 100% 30.37 in 3.0 mi Calm Calm - N/A   Clear
7:35 AM 41.0 °F 41.0 °F 100% 30.38 in 8.0 mi Calm Calm - N/A   Clear
7:55 AM 44.6 °F 44.6 °F 100% 30.38 in 5.0 mi Calm Calm - N/A   Clear
8:15 AM 46.4 °F 46.4 °F 100% 30.39 in 5.0 mi Calm Calm - N/A   Clear
8:35 AM 50.0 °F 48.2 °F 94% 30.38 in 2.5 mi Calm Calm - N/A   Clear
8:55 AM 51.8 °F 50.0 °F 94% 30.38 in 1.2 mi Calm Calm - N/A   Clear
9:15 AM 53.6 °F 48.2 °F 82% 30.38 in 1.5 mi Calm Calm - N/A   Haze
9:35 AM 57.2 °F 48.2 °F 72% 30.38 in 1.5 mi Calm Calm - N/A   Haze
9:55 AM 57.2 °F 44.6 °F 63% 30.38 in 2.5 mi Calm Calm - N/A   Haze
10:15 AM 60.8 °F 42.8 °F 52% 30.37 in 4.0 mi SE 3.5 mph - N/A   Haze
10:35 AM 60.8 °F 42.8 °F 52% 30.36 in 4.0 mi SE 3.5 mph - N/A   Haze
10:55 AM 62.6 °F 39.2 °F 42% 30.35 in 8.0 mi SE 5.8 mph - N/A   Clear
11:15 AM 62.6 °F 39.2 °F 42% 30.35 in 10.0 mi SSE 5.8 mph - N/A   Clear
11:35 AM 62.6 °F 39.2 °F 42% 30.34 in 10.0 mi ESE 4.6 mph - N/A   Clear
11:55 AM 62.6 °F 37.4 °F 39% 30.33 in 10.0 mi SE 6.9 mph - N/A   Clear
12:15 PM 62.6 °F 37.4 °F 39% 30.31 in 10.0 mi SSE 6.9 mph - N/A   Clear
12:35 PM 62.6 °F 39.2 °F 42% 30.30 in 10.0 mi SE 3.5 mph - N/A   Partly Cloudy
12:55 PM 62.6 °F 39.2 °F 42% 30.29 in 10.0 mi SSE 4.6 mph - N/A   Clear
1:15 PM 64.4 °F 41.0 °F 42% 30.28 in 10.0 mi SE 3.5 mph - N/A   Clear
1:35 PM 64.4 °F 37.4 °F 37% 30.28 in 10.0 mi SE 4.6 mph - N/A   Clear
1:55 PM 64.4 °F 35.6 °F 34% 30.28 in 10.0 mi South 4.6 mph - N/A   Clear
2:15 PM 64.4 °F 39.2 °F 40% 30.27 in 10.0 mi SSE 3.5 mph - N/A   Clear
2:35 PM 62.6 °F 37.4 °F 39% 30.26 in 10.0 mi SSE 3.5 mph - N/A   Clear
2:55 PM 62.6 °F 39.2 °F 42% 30.26 in 10.0 mi SSE 3.5 mph - N/A   Clear
3:15 PM 62.6 °F 41.0 °F 45% 30.25 in 10.0 mi Calm Calm - N/A   Clear
3:35 PM 60.8 °F 42.8 °F 52% 30.25 in 10.0 mi Calm Calm - N/A   Clear
3:55 PM 60.8 °F 44.6 °F 55% 30.25 in 10.0 mi Calm Calm - N/A   Clear
4:15 PM 60.8 °F 46.4 °F 59% 30.24 in 10.0 mi Calm Calm - N/A   Clear
4:35 PM 59.0 °F 46.4 °F 63% 30.24 in 10.0 mi Calm Calm - N/A   Clear
4:55 PM 57.2 °F 48.2 °F 72% 30.24 in 9.0 mi Calm Calm - N/A   Clear
5:15 PM 57.2 °F 46.4 °F 67% 30.23 in 8.0 mi Calm Calm - N/A   Clear
5:35 PM 55.4 °F 48.2 °F 77% 30.23 in 8.0 mi Calm Calm - N/A   Clear
5:55 PM 55.4 °F 50.0 °F 82% 30.22 in 10.0 mi Calm Calm - N/A   Clear
6:15 PM 55.4 °F 50.0 °F 82% 30.22 in 10.0 mi Calm Calm - N/A   Clear
6:35 PM 55.4 °F 50.0 °F 82% 30.22 in 10.0 mi Calm Calm - N/A   Clear
6:55 PM 55.4 °F 48.2 °F 77% 30.23 in 10.0 mi Calm Calm - N/A   Clear
7:15 PM 55.4 °F 48.2 °F 77% 30.23 in 8.0 mi Calm Calm - N/A   Clear
7:35 PM 55.4 °F 48.2 °F 77% 30.22 in 10.0 mi Calm Calm - N/A   Clear
7:55 PM 55.4 °F 48.2 °F 77% 30.22 in 10.0 mi Calm Calm - N/A   Clear
8:15 PM 55.4 °F 48.2 °F 77% 30.22 in 10.0 mi Calm Calm - N/A   Clear
8:35 PM 55.4 °F 48.2 °F 77% 30.21 in 10.0 mi SSE 3.5 mph - N/A   Clear
8:55 PM 55.4 °F 46.4 °F 72% 30.21 in 10.0 mi South 4.6 mph - N/A   Clear
9:15 PM 55.4 °F 46.4 °F 72% 30.20 in 10.0 mi South 4.6 mph - N/A   Clear
9:35 PM 55.4 °F 46.4 °F 72% 30.20 in 10.0 mi SSE 5.8 mph - N/A   Clear
9:55 PM 55.4 °F 44.6 °F 67% 30.19 in 10.0 mi SSE 5.8 mph - N/A   Clear
10:15 PM 55.4 °F 44.6 °F 67% 30.18 in 10.0 mi SSE 5.8 mph - N/A   Clear
10:35 PM 55.4 °F 44.6 °F 67% 30.18 in 10.0 mi SSE 5.8 mph - N/A   Clear
10:55 PM 55.4 °F 44.6 °F 67% 30.18 in 10.0 mi SSE 5.8 mph - N/A   Clear
11:15 PM 55.4 °F 44.6 °F 67% 30.18 in 10.0 mi SSE 5.8 mph - N/A   Clear
11:35 PM 55.4 °F 44.6 °F 67% 30.17 in 10.0 mi SSE 5.8 mph - N/A   Clear
11:55 PM 55.4 °F 44.6 °F 67% 30.17 in 10.0 mi SSE 4.6 mph - N/A   Clear